Nome, AK

5:38 PM AKST on December 14, 2019 (GMT -0900)
Nome

Weather History for PAOM - November, 2019

Change the Weather History Date:

Tuesday, November 12, 2019

  Actual Average Record
Temperature  
Mean Temperature 34 °F 18 °F  
Max Temperature 41 °F 24 °F 38 °F (1937)
Min Temperature 27 °F 12 °F -9 °F (1975)
Degree Days  
Heating Degree Days 31 47  
Month to date heating degree days 452 543  
Since 1 July heating degree days 2802 3193  
Cooling Degree Days 0 0  
Month to date cooling degree days 0 0  
Year to date cooling degree days 17 3  
Moisture  
Dew Point 26 °F    
Average Humidity 71    
Maximum Humidity 89    
Minimum Humidity 39    
Precipitation  
Precipitation 0.00 in 0.04 in 0.55 in (1920)
Month to date precipitation 0.02 0.52  
Year to date precipitation 25.99 15.03  
Sea Level Pressure  
Sea Level Pressure 29.80 in    
Wind  
Wind Speed 7 mph ()    
Max Wind Speed 28 mph    
Max Gust Speed 38 mph    
Visibility 9.8 miles    
Events      
T = Trace of Precipitation, MM = Missing Value Source: Averaged Metar Reports

Daily Weather History Graph

Daily Weather History Graph

Search for Another Location

Airport or City:

Astronomy

Nov. 12, 2019 Rise Set
Actual Time 10:24 AM AKST 5:06 PM AKST
Civil Twilight 9:24 AM AKST 6:06 PM AKST
Nautical Twilight 8:23 AM AKST 7:07 PM AKST
Astronomical Twilight 7:26 AM AKST 8:03 PM AKST
Moon 5:48 PM AKST (11/12) 10:14 AM AKST (11/12)
Length of Visible Light 8h 42m
Length of Day
6h 42m
Full, 100% of the Moon is Illuminated
Nov 12
Full
Nov 19
Last Quarter
Nov 26
New
Dec 3
First Quarter
Dec 11
Full

Hourly Weather History & Observations

Time (AKST) Temp. Windchill Dew Point Humidity Pressure Visibility Wind Dir Wind Speed Gust Speed Precip Events Conditions
12:53 AM 37.0 °F 32.4 °F 32.0 °F 82% 29.77 in 10.0 mi East 5.8 mph - N/A   Mostly Cloudy
1:53 AM 35.1 °F - 30.9 °F 85% 29.77 in 10.0 mi Calm Calm - N/A   Overcast
2:53 AM 34.0 °F - 30.9 °F 89% 29.77 in 10.0 mi Calm Calm - N/A   Overcast
3:53 AM 36.0 °F - 33.1 °F 89% 29.77 in 10.0 mi Calm Calm - N/A   Overcast
4:53 AM 37.0 °F 33.3 °F 32.0 °F 82% 29.78 in 10.0 mi ENE 4.6 mph - N/A   Overcast
5:53 AM 37.9 °F 32.7 °F 32.0 °F 79% 29.77 in 10.0 mi NE 6.9 mph - N/A   Overcast
6:53 AM 37.9 °F 32.7 °F 32.0 °F 79% 29.77 in 10.0 mi NE 6.9 mph - N/A   Overcast
7:53 AM 39.0 °F 34.8 °F 32.0 °F 76% 29.78 in 10.0 mi ENE 5.8 mph - N/A   Overcast
8:53 AM 39.9 °F 35.1 °F 33.1 °F 77% 29.78 in 10.0 mi ENE 6.9 mph - N/A   Overcast
9:53 AM 36.0 °F 30.3 °F 32.0 °F 86% 29.79 in 10.0 mi SE 6.9 mph - N/A   Mostly Cloudy
10:53 AM 36.0 °F 29.6 °F 32.0 °F 86% 29.80 in 10.0 mi ESE 8.1 mph - N/A   Mostly Cloudy
11:53 AM 36.0 °F - 32.0 °F 86% 29.81 in 10.0 mi Calm Calm - N/A   Scattered Clouds
12:53 PM 37.0 °F - 33.1 °F 86% 29.81 in 10.0 mi North - - N/A   Scattered Clouds
1:53 PM 39.9 °F 32.9 °F 33.1 °F 77% 29.80 in 10.0 mi NE 11.5 mph - N/A   Mostly Cloudy
2:53 PM 39.0 °F 30.6 °F 30.9 °F 73% 29.80 in 10.0 mi NE 15.0 mph - N/A   Mostly Cloudy
3:53 PM 37.0 °F 26.4 °F 24.1 °F 59% 29.79 in 10.0 mi NE 20.7 mph - N/A   Scattered Clouds
5:53 PM 34.0 °F 23.0 °F 19.9 °F 56% 29.81 in 10.0 mi NE 18.4 mph 23.0 mph N/A   Scattered Clouds
6:53 PM 33.1 °F 21.5 °F 18.0 °F 54% 29.81 in 10.0 mi NE 19.6 mph 28.8 mph N/A   Clear
7:53 PM 30.9 °F 18.4 °F 15.1 °F 52% 29.83 in 10.0 mi ENE 20.7 mph 29.9 mph N/A   Clear
8:53 PM 32.0 °F 18.9 °F 12.0 °F 44% 29.84 in 10.0 mi ENE 24.2 mph 32.2 mph N/A   Clear
9:53 PM 28.9 °F 15.8 °F 10.0 °F 45% 29.84 in 10.0 mi ENE 20.7 mph 33.4 mph N/A   Clear
10:53 PM 28.0 °F 15.7 °F 8.1 °F 43% 29.86 in 10.0 mi NE 17.3 mph 26.5 mph N/A   Clear
11:53 PM 27.0 °F 11.3 °F 5.0 °F 39% 29.85 in 5.0 mi ENE 27.6 mph 38.0 mph N/A   Haze